sat.trackr.live / text

‹ back to catalog

STARLINK-3147

NORAD 49410 · 2021-104C

PAYLOAD ACTIVE UNKNOWN

§ Identity

Operator
Country
US
Launch date
2021-11-13
Launch site
AFETR
Launch vehicle
Mass (kg)
RCS (m²)

Purposes: comms

External: N2YO · Heavens-Above · Gunter

§ Orbital elements

Epoch: 2026-09-20T03:48:56.115648Z

Period
94.01 min
Inclination
53.1600°
Eccentricity
0.0001231
Mean motion
15.31698513 rev/d
Perigee alt
469.9 km
Apogee alt
471.6 km
Semi-major
6,848.9 km
B*
2.5304e-5
RAAN
62.4040°
Arg perigee
92.5676°
Mean anomaly
267.5466°
Rev number
26,817

§ Raw data

STARLINK-31471 49410U 21104C   26263.15898282  .00000420  00000+0  25304-4 0  99912 49410  53.1600  62.4040 0001231  92.5676 267.5466 15.31698513268175

JSON: /api/v1/satellites/49410 · /tle

For live sub-satellite position, see the globe view (requires WebGL).

§ Visibility from observer

Set your observer location to see the next 7 days of passes ≥ 10°. The values pass through the URL so the page stays shareable.

No JS? Fill the form by hand. The geolocation button needs JavaScript.